User: anonymous   Login
Location: Roanoke
(37.2710°N, 79.9420°W)
Time: 13:49:46
(UTC-04:00)
Language:

FENGYUN 3A - Orbit

View from above orbital plane
View from above orbital plane
View from above satellite
View from above satellite

Ground track
Ground track

The orbit data is extracted from the following two-line orbital elements,

1 32958U 08026A   16120.21240613  .00000032  00000-0  34978-4 0  9992
2 32958  98.4574 162.4549 0010596  46.8724 313.3337 14.19615227410601
Epoch (UTC): 29 April 2016 05:05:51
Eccentricity: 0.0010596
inclination: 98.4574°
perigee height: 819 km
apogee height: 834 km
right ascension of ascending node: 162.4549°
argument of perigee: 46.8724°
revolutions per day: 14.19615227
mean anomaly at epoch: 313.3337°
orbit number at epoch: 41060

The dashed part of the orbit path shows where the satellite is in the earth's shadow,  

DLR